GW1392 Weather Reports


time (UTC)temp
C
wind
direction
speed
KPH
gust
KPH
rain 1hr
cm
rain 24hr
cm
rain mn
cm
humidity
%
barometer
mb
20260508060056 5 283 0.0 3.2 0.00 0.00 0.00 70 1005.5
20260508054615 5 273 0.0 0.0 0.00 0.03 0.00 71 1005.8
20260508053048 5 273 0.0 0.0 0.00 0.03 0.00 72 1005.9
20260508051537 6 272 0.0 3.2 0.00 0.03 0.00 69 1006.0
20260508050037 5 285 0.0 0.0 0.00 0.03 0.00 69 1006.3
20260508044533 5 285 0.0 0.0 0.00 0.36 0.00 68 1006.2
20260508043035 6 285 0.0 0.0 0.00 0.36 0.00 67 1006.3
20260508041528 6 285 0.0 0.0 0.00 0.36 0.00 66 1006.4
20260508040032 6 284 0.0 0.0 0.00 0.36 0.00 67 1006.3
20260508034530 7 284 0.0 0.0 0.00 0.41 0.36 65 1006.3
20260508033028 7 285 0.0 0.0 0.00 0.41 0.36 58 1006.4
20260508031519 8 284 0.0 1.6 0.00 0.41 0.36 55 1006.3
20260508030019 8 285 0.0 1.6 0.00 0.41 0.36 55 1006.3
20260508024518 8 293 0.0 1.6 0.00 0.41 0.36 58 1006.3
20260508023018 9 277 0.0 3.2 0.00 0.41 0.36 52 1006.1
20260508021517 9 280 0.0 3.2 0.00 0.41 0.36 52 1006.1
20260508020017 10 287 0.0 3.2 0.00 0.41 0.36 50 1005.8
20260508014517 10 286 0.0 4.8 0.00 0.41 0.36 50 1005.7
20260508013016 10 265 0.0 1.6 0.00 0.41 0.36 49 1005.5
20260508011516 11 289 0.0 3.2 0.00 0.41 0.36 47 1005.4
20260508010025 11 290 0.0 3.2 0.00 0.41 0.36 47 1005.2
20260508004523 11 358 0.0 4.8 0.00 0.41 0.36 48 1004.8
20260508003013 12 15 0.0 0.0 0.00 0.00 0.36 46 1004.5
20260508001513 12 86 0.0 0.0 0.00 0.41 0.36 45 1004.3
20260508000012 12 51 0.0 4.8 0.00 0.41 0.36 45 1004.2
20260507234512 13 293 0.0 4.8 0.00 0.41 0.36 44 1004.1
20260507233012 13 52 0.0 6.4 0.00 0.41 0.36 42 1003.9
20260507231511 13 36 0.0 4.8 0.00 0.41 0.36 43 1003.7
20260507230010 14 16 0.0 3.2 0.00 0.41 0.36 41 1003.4
20260507224514 14 34 1.6 6.4 0.00 0.41 0.36 38 1003.2
20260507223009 15 293 0.0 6.4 0.00 0.41 0.36 41 1003.0
20260507221511 15 41 0.0 8.0 0.00 0.41 0.36 40 1002.9
20260507220008 15 47 1.6 8.0 0.00 0.48 0.36 39 1002.9
20260507214515 15 39 4.8 14.5 0.00 0.48 0.36 38 1002.9
20260507213006 15 83 3.2 14.5 0.00 0.48 0.36 38 1002.8
20260507211506 15 37 0.0 9.7 0.00 0.48 0.36 38 1002.8
20260507210005 16 248 1.6 20.9 0.00 0.66 0.36 38 1002.6
20260507204505 16 191 1.6 11.3 0.00 0.66 0.36 37 1002.6
20260507203003 16 115 1.6 12.9 0.00 0.66 0.36 37 1002.5
20260507201501 16 23 3.2 20.9 0.00 0.66 0.36 38 1002.4
20260507200100 16 39 4.8 14.5 0.00 0.66 0.36 42 1002.5
20260507194556 15 46 1.6 11.3 0.00 0.81 0.36 49 1002.4
20260507193052 12 18 1.6 20.9 0.00 0.81 0.36 74 1002.6
20260507191553 10 191 12.9 17.7 0.00 0.81 0.36 85 1002.9
20260507190050 10 190 12.9 19.3 0.00 0.81 0.36 84 1002.9
20260507184549 10 205 16.1 22.5 0.00 0.81 0.36 84 1003.0
20260507183050 10 193 19.3 22.5 0.00 0.81 0.36 84 1003.1
20260507181548 11 204 17.7 24.1 0.00 0.81 0.36 82 1003.3
20260507180057 11 195 19.3 25.7 0.00 0.81 0.36 77 1003.5
20260507174602 12 199 14.5 20.9 0.00 0.81 0.36 74 1003.5
20260507173049 11 193 12.9 22.5 0.00 0.81 0.36 76 1003.8
20260507171600 11 186 16.1 24.1 0.00 0.81 0.36 77 1003.9
20260507170045 11 217 17.7 32.2 0.00 0.81 0.36 80 1004.0
20260507164548 10 184 17.7 22.5 0.00 0.81 0.36 88 1004.0
20260507163049 10 198 20.9 24.1 0.00 0.81 0.36 87 1004.1
20260507161543 10 191 17.7 22.5 0.00 0.81 0.36 86 1004.1
20260507160047 10 193 19.3 24.1 0.00 0.81 0.36 86 1004.5
20260507154540 10 192 19.3 25.7 0.00 0.81 0.36 82 1004.6
20260507153044 11 205 20.9 25.7 0.00 0.81 0.36 82 1004.6
20260507151538 11 194 22.5 25.7 0.00 0.81 0.36 79 1004.6
20260507150037 12 191 14.5 20.9 0.00 0.81 0.36 76 1004.7
20260507144536 13 203 4.8 11.3 0.00 0.81 0.36 68 1004.8
20260507143033 13 306 1.6 8.0 0.00 0.81 0.36 70 1005.0
20260507141530 13 170 3.2 9.7 0.00 0.81 0.36 71 1005.1
20260507140028 13 213 4.8 12.9 0.00 0.81 0.36 71 1005.2
20260507134527 12 58 1.6 8.0 0.00 0.81 0.36 73 1005.3
20260507133025 12 282 1.6 8.0 0.00 0.81 0.36 74 1005.2
20260507131522 12 356 1.6 4.8 0.00 0.81 0.36 73 1005.4
20260507130025 11 28 0.0 9.7 0.00 0.81 0.36 76 1005.5
20260507124529 11 251 0.0 11.3 0.00 0.81 0.36 79 1005.7
20260507123016 11 50 0.0 3.2 0.00 0.81 0.36 81 1005.6
20260507121512 10 48 0.0 4.8 0.00 0.81 0.36 83 1005.5
20260507120010 10 37 0.0 1.6 0.00 0.81 0.36 89 1005.6
20260507114509 8 68 0.0 1.6 0.00 0.81 0.36 91 1005.6
20260507113014 8 34 0.0 1.6 0.00 0.81 0.36 93 1005.8
20260507111513 8 33 1.6 4.8 0.00 0.81 0.36 95 1005.6
20260507110022 7 28 0.0 0.0 0.00 0.81 0.36 95 1005.7
20260507104506 7 28 0.0 0.0 0.00 0.81 0.36 95 1006.5
20260507103005 7 282 0.0 0.0 0.00 0.81 0.36 96 1006.2
20260507101504 7 282 0.0 0.0 0.00 0.81 0.36 95 1005.7
20260507100003 7 282 0.0 0.0 0.00 0.81 0.36 95 1005.8
20260507094501 7 282 0.0 0.0 0.00 0.81 0.36 94 1005.2
20260507093059 7 282 0.0 1.6 0.00 0.81 0.36 94 1005.1
20260507091557 8 330 0.0 0.0 0.00 0.81 0.36 93 1005.1
20260507090101 8 354 0.0 8.0 0.00 0.81 0.36 93 1005.2
20260507084552 8 36 0.0 6.4 0.00 0.81 0.36 94 1005.5
20260507083049 8 345 0.0 9.7 0.00 0.81 0.36 96 1004.7
20260507081546 8 42 0.0 3.2 0.00 0.81 0.36 96 1005.0
20260507080044 8 351 0.0 3.2 0.00 0.81 0.36 96 1004.6
20260507074554 9 8 0.0 4.8 0.00 0.81 0.36 96 1004.8
20260507073045 9 35 1.6 4.8 0.00 0.81 0.36 96 1004.5
20260507071540 9 356 0.0 6.4 0.00 0.81 0.36 97 1004.6
20260507070041 9 41 0.0 3.2 0.00 0.81 0.36 98 1004.4
20260507064535 9 37 0.0 3.2 0.00 0.81 0.36 98 1003.9
20260507063048 10 271 0.0 1.6 0.03 0.81 0.36 98 1003.9
20260507061534 10 295 0.0 1.6 0.03 0.81 0.36 98 1003.9